Weather History for Atlanta Fulton, GA

Change the Weather History Date:

Wednesday, August 6, 2014

  Actual Average Record
Temperature  
Mean Temperature 78 °F 80 °F  
Max Temperature 92 °F 89 °F 97 °F (2007)
Min Temperature 63 °F 71 °F 51 °F (1996)
Cooling Degree Days 13 15  
Month to date cooling degree days 74 90  
Year to date cooling degree days 1057 1099  
Since 1 June cooling degree days 841 899  
Growing Degree Days 27 (Base 50)    
Moisture  
Dew Point 64 °F    
Average Humidity 66    
Maximum Humidity 93    
Minimum Humidity 38    
Precipitation  
Precipitation 0.00 in 0.19 in 1.68 in (2006)
Month to date precipitation 0.03 1.09  
Year to date precipitation 27.02 31.77  
Sea Level Pressure  
Sea Level Pressure 30.02 in    
Wind  
Wind Speed 2 mph (West)    
Max Wind Speed 12 mph    
Max Gust Speed 15 mph    
Visibility 9 miles    
Events      
T = Trace of Precipitation, MM = Missing Value Source: NWS Daily Summary

Daily Weather History Graph

Daily Weather History Graph

Search for Another Location

Airport:

Trip Planner

Search our weather history database for the weather conditions in past years. The results will help you decide how hot, cold, wet, or windy it might be!

Date:

Astronomy

Aug. 06, 2014 Rise Set
Actual Time 6:53 AM EDT 8:33 PM EDT
Civil Twilight 6:26 AM EDT 9:00 PM EDT
Nautical Twilight 5:54 AM EDT 9:33 PM EDT
Astronomical Twilight 5:19 AM EDT 10:07 PM EDT
Moon 4:48 PM EDT (8/6) 2:29 AM EDT (8/6)
Length of Visible Light 14h 34m
Length of Day
13h 40m
Waxing Gibbous, 77% of the Moon is Illuminated
Aug 6
Waxing Gibbous
Aug 10
Full
Aug 17
Last Quarter
Aug 25
New
Sep 2
First Quarter

Hourly Weather History & Observations

Time (EDT) Temp. Heat Index Dew Point Humidity Pressure Visibility Wind Dir Wind Speed Gust Speed Precip Events Conditions
12:53 AM 68.0 °F - 64.0 °F 87% 30.04 in 10.0 mi Calm Calm - N/A   Clear
1:53 AM 66.9 °F - 63.0 °F 87% 30.03 in 10.0 mi Calm Calm - N/A   Clear
2:53 AM 66.0 °F - 63.0 °F 90% 30.03 in 9.0 mi Calm Calm - N/A   Clear
3:53 AM 64.9 °F - 62.1 °F 90% 30.02 in 8.0 mi Calm Calm - N/A   Clear
4:53 AM 64.9 °F - 62.1 °F 90% 30.02 in 9.0 mi Calm Calm - N/A   Clear
5:53 AM 63.0 °F - 61.0 °F 93% 30.02 in 7.0 mi Calm Calm - N/A   Clear
6:53 AM 64.0 °F - 61.0 °F 90% 30.03 in 7.0 mi Calm Calm - N/A   Clear
7:53 AM 64.9 °F - 62.1 °F 90% 30.05 in 8.0 mi Calm Calm - N/A   Clear
8:53 AM 71.1 °F - 64.0 °F 78% 30.06 in 7.0 mi Calm Calm - N/A   Clear
9:53 AM 78.1 °F - 64.9 °F 64% 30.06 in 10.0 mi Calm Calm - N/A   Clear
10:53 AM 82.9 °F 84.4 °F 64.0 °F 53% 30.06 in 10.0 mi Calm Calm - N/A   Clear
11:53 AM 86.0 °F 86.1 °F 61.0 °F 43% 30.06 in 10.0 mi Calm Calm - N/A   Clear
12:53 PM 87.8 °F 88.5 °F 62.6 °F 43% 30.07 in 10.0 mi Calm Calm - N/A   Clear
1:53 PM 90.0 °F 91.3 °F 64.0 °F 42% 30.02 in 10.0 mi Variable 5.8 mph - N/A   Clear
2:53 PM 89.6 °F 90.1 °F 62.6 °F 40% 30.03 in 10.0 mi West 5.8 mph - N/A   Partly Cloudy
3:53 PM 91.0 °F 91.9 °F 63.0 °F 39% 29.99 in 10.0 mi West 6.9 mph - N/A   Partly Cloudy
4:53 PM 89.1 °F 90.0 °F 63.0 °F 42% 29.97 in 10.0 mi West 5.8 mph - N/A   Scattered Clouds
5:53 PM 90.0 °F 90.3 °F 62.1 °F 39% 29.96 in 10.0 mi WNW 5.8 mph - N/A   Clear
6:53 PM 89.1 °F 90.0 °F 63.0 °F 42% 29.96 in 10.0 mi West 4.6 mph - N/A   Mostly Cloudy
7:53 PM 88.0 °F 89.6 °F 64.9 °F 46% 29.96 in 10.0 mi West 4.6 mph - N/A   Scattered Clouds
8:53 PM 81.0 °F 84.1 °F 69.1 °F 67% 29.96 in 10.0 mi Calm Calm - N/A   Clear
9:53 PM 77.0 °F - 70.0 °F 79% 29.98 in 10.0 mi Calm Calm - N/A   Clear
10:53 PM 77.0 °F - 69.1 °F 76% 30.00 in 10.0 mi Calm Calm - N/A   Clear
11:53 PM 73.9 °F - 69.1 °F 85% 30.00 in 10.0 mi Calm Calm - N/A   Clear